AEROCUBE 8C

Last updated on Sun Dec 14 2025 00:03:50 GMT+0000 (Coordinated Universal Time)

1 41853U 16067F 25347.12731239 .00012920 00000+0 58099-3 0 9997 2 41853 98.0763 195.7606 0005767 358.5566 1.5650 15.21258658497744
UTC large
Height (km)
Speed (km/s)
/
Latitude / Longitude
Inclination (degrees)
Orbital Period (minutes)
Azimuth
Elevation
Range (km)
Doppler Factor

Next 0 passes for location: London (51.5072 / 0.1276)

Sorry there are no passes over London.